FW2265 Weather Reports


Display with metric or nautical units.
time (UTC)temp
F
wind
direction
speed
MPH
gust
MPH
rain 1hr
in
rain 24hr
in
rain mn
in
humidity
%
barometer
mb
20260507093247 69 47 0.0 1.0 0.00 0.00 0.00 85 1013.4
20260507091344 70 54 0.0 3.0 0.00 0.00 0.00 85 1013.4
20260507090345 70 109 0.0 0.0 0.00 0.00 0.00 84 1013.3
20260507085346 70 31 2.0 4.0 0.00 0.00 0.00 83 1013.3
20260507084346 70 43 1.0 3.0 0.00 0.00 0.00 84 1013.1
20260507083445 71 39 1.0 3.0 0.00 0.00 0.00 84 1013.0
20260507082446 71 55 1.0 4.0 0.00 0.00 0.00 84 1013.0
20260507081445 71 87 0.0 0.0 0.00 0.00 0.00 83 1013.1
20260507080446 71 62 0.0 3.0 0.00 0.00 0.00 84 1013.1
20260507075445 71 48 0.0 1.0 0.00 0.00 0.00 85 1013.1
20260507074544 72 63 2.0 6.0 0.00 0.00 0.00 84 1013.2
20260507072546 72 149 0.0 1.0 0.00 0.00 0.00 83 1013.3
20260507065648 72 128 0.0 0.0 0.00 0.00 0.00 84 1013.3
20260507064647 73 54 0.0 2.0 0.00 0.00 0.00 84 1013.2
20260507063645 73 81 0.0 1.0 0.00 0.00 0.00 84 1013.2
20260507062647 73 211 0.0 1.0 0.00 0.00 0.00 83 1013.3
20260507061745 73 53 1.0 3.0 0.00 0.00 0.00 84 1013.3
20260507060746 74 77 0.0 1.0 0.00 0.00 0.00 83 1013.1
20260507055744 74 8 0.0 2.0 0.00 0.00 0.00 83 1012.8
20260507053746 74 64 0.0 2.0 0.00 0.00 0.00 86 1012.9
20260507052845 74 142 0.0 0.0 0.00 0.00 0.00 86 1013.1
20260507050946 75 202 0.0 0.0 0.00 0.00 0.00 86 1012.9
20260507050023 75 157 0.0 0.0 0.00 0.00 0.00 86 1012.8
20260507045123 75 205 0.0 0.0 0.00 0.00 0.00 86 1013.0
20260507043124 76 180 0.0 0.0 0.00 0.00 0.00 85 1013.1
20260507042125 77 184 0.0 1.0 0.00 0.00 0.00 85 1013.0
20260507041125 77 136 0.0 0.0 0.00 0.00 0.00 85 1012.8
20260507035124 78 225 0.0 0.0 0.00 0.00 0.00 91 1012.4
20260507033223 78 225 0.0 0.0 0.00 0.00 0.00 91 1012.2
20260507032225 78 225 0.0 0.0 0.00 0.00 0.00 90 1011.9
20260507030223 78 202 0.0 1.0 0.00 0.00 0.00 91 1011.4
20260507025224 78 202 0.0 0.0 0.00 0.00 0.00 90 1011.4
20260507024225 78 202 0.0 0.0 0.00 0.00 0.00 90 1011.2
20260507023226 78 202 0.0 0.0 0.00 0.00 0.00 90 1011.1
20260507022225 78 202 0.0 0.0 0.00 0.00 0.00 90 1011.0
20260507021225 78 202 0.0 0.0 0.00 0.00 0.00 89 1010.9
20260507020223 79 202 0.0 0.0 0.00 0.00 0.00 87 1010.9
20260507015225 79 202 0.0 0.0 0.00 0.00 0.00 87 1010.7
20260507013325 79 225 0.0 1.0 0.00 0.00 0.00 87 1010.2
20260507012324 80 224 0.0 1.0 0.00 0.00 0.00 86 1010.2
20260507010425 80 202 0.0 1.0 0.00 0.00 0.00 86 1009.7
20260507005425 80 218 0.0 2.0 0.00 0.00 0.00 86 1009.9
20260507003525 80 202 0.0 1.0 0.00 0.00 0.00 85 1009.7
20260507002524 81 180 0.0 0.0 0.00 0.00 0.00 84 1009.6
20260507001524 81 149 0.0 1.0 0.00 0.00 0.00 84 1009.5
20260507000525 81 202 0.0 0.0 0.00 0.00 0.00 83 1009.4
20260506235426 82 225 0.0 1.0 0.00 0.00 0.00 82 1009.6
20260506233425 82 135 0.0 0.0 0.00 0.00 0.00 82 1009.3
20260506232424 82 182 0.0 0.0 0.00 0.00 0.00 81 1009.5
20260506231424 83 202 0.0 0.0 0.00 0.00 0.00 80 1009.4
20260506225426 82 207 1.0 4.0 0.00 0.00 0.00 80 1009.2
20260506223425 83 214 2.0 4.0 0.00 0.00 0.00 79 1009.0
20260506221425 83 224 1.0 3.0 0.00 0.00 0.00 79 1009.1
20260506215424 84 214 0.0 4.0 0.00 0.00 0.00 76 1009.1
20260506214425 85 225 0.0 3.0 0.00 0.00 0.00 76 1009.1
20260506212522 85 218 1.0 3.0 0.00 0.00 0.00 75 1009.1
20260506211426 84 196 0.0 0.0 0.00 0.00 0.00 76 1009.1
20260506210524 85 210 1.0 4.0 0.00 0.00 0.00 76 1009.3
20260506205623 85 56 0.0 1.0 0.00 0.00 0.00 75 1009.2
20260506204625 85 154 0.0 0.0 0.00 0.00 0.00 75 1009.3
20260506204524 85 180 1.0 5.0 0.00 0.00 0.00 76 1009.4
20260506203525 85 232 0.0 0.0 0.00 0.00 0.00 76 1009.4
20260506202523 84 216 1.0 4.0 0.00 0.00 0.00 79 1009.6
20260506201526 83 210 1.0 2.0 0.00 0.00 0.00 80 1009.7
20260506200623 83 225 0.0 2.0 0.00 0.00 0.00 79 1010.0
20260506195624 83 185 0.0 2.0 0.00 0.00 0.00 80 1010.1
20260506194625 84 225 1.0 3.0 0.00 0.00 0.00 79 1010.0
20260506193623 84 224 0.0 1.0 0.00 0.00 0.00 79 1010.2
20260506193524 84 185 0.0 3.0 0.00 0.00 0.00 78 1010.2
20260506191622 84 224 2.0 3.0 0.00 0.00 0.00 77 1010.2
20260506190624 84 129 0.0 0.0 0.00 0.00 0.00 78 1010.4
20260506190522 84 205 0.0 1.0 0.00 0.00 0.00 77 1010.6
20260506185523 84 202 0.0 1.0 0.00 0.00 0.00 79 1010.5
20260506185423 84 202 0.0 1.0 0.00 0.00 0.00 79 1010.5
20260506184424 84 219 0.0 2.0 0.00 0.00 0.00 78 1010.8
20260506182525 84 219 1.0 2.0 0.00 0.00 0.00 79 1010.9
20260506181623 83 202 1.0 2.0 0.00 0.00 0.00 79 1010.9
20260506180624 84 208 2.0 3.0 0.00 0.00 0.00 78 1011.1
20260506175723 83 225 0.0 3.0 0.00 0.00 0.00 81 1011.1
20260506174724 82 225 0.0 2.0 0.00 0.00 0.00 83 1011.2
20260506173726 82 227 0.0 1.0 0.00 0.00 0.00 83 1011.2
20260506172823 82 220 0.0 0.0 0.00 0.00 0.00 83 1011.3
20260506171824 82 190 1.0 4.0 0.00 0.00 0.00 84 1011.5
20260506171722 82 232 1.0 4.0 0.00 0.00 0.00 85 1011.5
20260506170726 81 225 0.0 0.0 0.00 0.00 0.00 87 1011.7
20260506165725 80 208 1.0 4.0 0.00 0.00 0.00 89 1011.7
20260506164823 79 225 0.0 0.0 0.00 0.00 0.00 89 1011.7
20260506163824 79 219 1.0 3.0 0.00 0.00 0.00 89 1011.7
20260506162824 80 225 0.0 1.0 0.00 0.00 0.00 87 1011.6
20260506161823 79 202 0.0 0.0 0.00 0.00 0.00 88 1011.5
20260506160824 80 225 0.0 1.0 0.00 0.00 0.00 88 1011.6
20260506155922 80 202 0.0 1.0 0.00 0.00 0.00 88 1011.5
20260506155022 79 202 0.0 2.0 0.00 0.00 0.00 88 1011.4
20260506154024 79 180 0.0 0.0 0.00 0.00 0.00 89 1011.1
20260506153026 79 137 0.0 0.0 0.00 0.00 0.00 88 1011.0
20260506152926 79 181 0.0 0.0 0.00 0.00 0.00 89 1011.0
20260506152023 79 225 0.0 0.0 0.00 0.00 0.00 87 1011.0
20260506151027 79 204 0.0 0.0 0.00 0.00 0.00 88 1010.9
20260506145924 79 218 0.0 1.0 0.00 0.00 0.00 89 1010.5
20260506144924 79 221 0.0 1.0 0.00 0.00 0.00 90 1010.4
20260506143923 79 202 0.0 0.0 0.00 0.00 0.00 90 1010.4
20260506142924 79 225 0.0 1.0 0.00 0.00 0.00 89 1010.5
20260506141924 79 225 0.0 2.0 0.00 0.00 0.00 89 1010.6
20260506140923 79 200 0.0 1.0 0.00 0.00 0.00 89 1010.6
20260506135923 79 180 1.0 2.0 0.00 0.00 0.00 89 1010.7
20260506133923 78 202 0.0 0.0 0.00 0.00 0.00 92 1010.6
20260506132924 77 202 0.0 2.0 0.00 0.00 0.00 92 1010.8
20260506130923 77 157 0.0 0.0 0.00 0.00 0.00 92 1010.9
20260506125924 77 202 0.0 0.0 0.00 0.00 0.00 93 1010.8
20260506124923 77 202 0.0 0.0 0.00 0.00 0.00 93 1010.6
20260506122924 76 225 0.0 0.0 0.00 0.00 0.00 94 1010.5
20260506121824 76 225 0.0 0.0 0.00 0.00 0.00 93 1010.4
20260506120923 76 188 0.0 2.0 0.00 0.00 0.00 95 1010.4
20260506115924 76 202 0.0 1.0 0.00 0.00 0.00 95 1010.2
20260506114924 76 202 0.0 0.0 0.00 0.00 0.00 95 1010.0
20260506114825 75 217 0.0 1.0 0.00 0.00 0.00 95 1009.9
20260506113824 75 225 0.0 0.0 0.00 0.00 0.00 94 1009.8
20260506111823 76 225 0.0 0.0 0.00 0.00 0.00 95 1009.6
20260506110922 76 225 0.0 1.0 0.00 0.00 0.00 95 1009.6
20260506105926 75 225 0.0 2.0 0.00 0.00 0.00 95 1009.4
20260506105023 75 247 0.0 0.0 0.00 0.00 0.00 94 1009.7
20260506104024 75 225 0.0 0.0 0.00 0.00 0.00 95 1009.6
20260506103925 75 225 0.0 0.0 0.00 0.00 0.00 94 1009.6
20260506102924 75 225 0.0 0.0 0.00 0.00 0.00 94 1009.5
20260506101924 75 225 0.0 0.0 0.00 0.00 0.00 95 1009.7
20260506100039 75 225 0.0 0.0 0.00 0.00 0.00 94 1009.4
20260506095024 75 225 0.0 0.0 0.00 0.00 0.00 94 1009.4
20260506094025 75 225 0.0 0.0 0.00 0.00 0.00 93 1009.3